Regional Weather Roundup
Issued by NWS New Orleans/Baton Rouge, LA

Home | Current Version | Previous Version | Graphics & Text | Print | Product List | Glossary On
Versions: 1 2 3 4 5 6 7 8 9 10 11 12 13 14 15 16 17 18 19 20 21 22 23 24 25 26 27 28 29 30 31 32 33 34 35 36 37 38 39 40 41 42 43 44 45 46 47 48 49 50
742
ASUS44 KLIX 272110
RWRLIX
NEW ORLEANS REGIONAL WEATHER ROUNDUP
NATIONAL WEATHER SERVICE NEW ORLEANS LA
300 PM CST TUE JAN 27 2015

NOTE: "FAIR" INDICATES FEW OR NO CLOUDS BELOW 12,000 FEET WITH NO
      SIGNIFICANT WEATHER AND/OR OBSTRUCTIONS TO VISIBILITY.
      SKY/WX - SKY CONDITION AND SIGNIFICANT WEATHER.
      TMP - AIR TEMPERATURE.     DP    - DEWPOINT TEMPERATURE.
      RH  - RELATIVE HUMIDITY.   PRES  - PRESSURE.
      HI  - HEAT INDEX.          WCI   - WIND CHILL INDEX.

*  THESE STATIONS ARE NOT NWS OR FAA STATIONS AND ARE NOT UNDER
   NWS QUALITY CONTROL.

LAZ038-040-048-061>063-065>067-069-272200-
SOUTHEAST LOUISIANA

CITY           SKY/WX    TMP DP  RH WIND       PRES   REMARKS
N.O. AUDUBON     N/A    N/A N/A N/A MISG        N/A
N.O. INTL ARPT MOSUNNY   72  39  30 NW10      30.07F
N.O. LAKEFRONT SUNNY     64  45  49 W8        30.08S
N.O. DOWNTOWN*   N/A    N/A N/A N/A NW3       30.08S
SLIDELL        SUNNY     74  34  23 NW9       30.05S
BATON ROUGE    SUNNY     76  30  18 NW8       30.08S
BOOTHVILLE     SUNNY     68  39  34 NW7       30.08S
BELLE CHASSE   SUNNY     73  35  25 VRB7      30.07S
BOGALUSA*        N/A     74  31  20 N12       30.07S
GALLIANO*      CLEAR     74  37  26 MISG      30.08S
NEW ROADS*       N/A     73  37  26 NW8       30.09S
GONZALES*        N/A     76  35  22 NW9       30.08R
HAMMOND*       SUNNY     75  28  17 N8        30.08S
HOUMA*         SUNNY     73  41  31 NW3       30.08S
PORT FOURCHON* CLEAR     64  48  55 W8        30.12S

$$

MSZ070-080>082-272200-
SOUTHERN MISSISSIPPI

CITY           SKY/WX    TMP DP  RH WIND       PRES   REMARKS
MCCOMB         SUNNY     71  34  25 NW13      30.08R
GULFPORT       SUNNY     72  34  24 NW10      30.03S
BILOXI         SUNNY     67  43  41 SW7       30.04S
PASCAGOULA     SUNNY     71  35  26 N9        30.03S
STENNIS ARPT*  SUNNY     72  28  20 N9        30.05S

$$

COASTAL OBSERVATIONS
LAKE AND NEARSHORE STATIONS

STATION/POSITION TIME  TEMP    WIND        PRES    WAVE
                       AIR SEA DIR/SP/G            HT/PER
                 (UTC) (F)     (DEG/KT/KT) (MB)    (FT/S)
PASCAGOULA       2100   61     230/  8/ 12 1016.7
WAVELAND YACHT   2100   69     340/  8/ 10 1016.7
GRAND ISLE       2100   66 60  210/  4/  6 1019.3
SOUTHWEST PASS   2100   75 47  310/  4/  5 1019.1
NEW CANAL        2100   65 54  260/  5/  5 1018.7
SHELL BEACH      2100   64 55  310/  8/  9 1018.1

OFFSHORE STATIONS

STATION/POSITION TIME  TEMP    WIND        PRES    WAVE
                       AIR SEA DIR/SP/G            HT/PER
                 (UTC) (F)     (DEG/KT/KT) (MB)    (FT/S)
64 S DAUPHIN ISL 2049   62 69  310/ 10/ 14 1018.2    3/ 7

$$




USA.gov is the U.S. government's official web portal to all federal, state and local government web resources and services.